DW7831 Weather Reports


time (UTC)temp
C
wind
direction
speed
KPH
gust
KPH
rain 1hr
cm
rain 24hr
cm
rain mn
cm
humidity
%
barometer
mb
20260904174527 23 304 4.8 0.0 0.00 0.00 0.03 53 1012.6
20260904173023 22 309 3.2 0.0 0.00 0.00 0.03 52 1012.6
20260904171520 22 336 4.8 0.0 0.00 0.00 0.03 53 1012.6
20260904170018 22 360 1.6 0.0 0.00 0.00 0.03 51 1012.5
20260904164516 22 344 3.2 0.0 0.00 0.00 0.03 51 1012.6
20260904163010 22 247 3.2 0.0 0.00 0.00 0.03 50 1012.3
20260904161505 21 360 8.0 0.0 0.00 0.00 0.03 50 1012.7
20260904160004 21 336 1.6 0.0 0.00 0.00 0.03 46 1012.8
20260904154600 21 323 1.6 0.0 0.00 0.00 0.03 44 1013.2
20260904153106 21 349 3.2 0.0 0.00 0.00 0.03 43 1013.2
20260904151552 21 13 1.6 0.0 0.00 0.00 0.03 39 1013.1
20260904144546 20 342 3.2 0.0 0.00 0.00 0.03 28 1013.5
20260904143040 20 261 1.6 0.0 0.00 0.00 0.03 20 1013.8
20260904141537 19 259 1.6 0.0 0.00 0.00 0.03 7 1013.6
20260904140034 18 268 0.0 0.0 0.00 0.00 0.03 100 1013.4
20260904134531 18 289 0.0 0.0 0.00 0.00 0.03 100 1013.5
20260904133025 18 290 1.6 0.0 0.00 0.00 0.03 100 1013.5
20260904131523 18 305 0.0 0.0 0.00 0.00 0.03 100 1013.5
20260904130035 18 309 1.6 0.0 0.00 0.00 0.03 100 1013.5
20260904124510 18 307 1.6 0.0 0.00 0.00 0.03 100 1013.4
20260904123015 18 280 3.2 0.0 0.00 0.00 0.03 100 1013.4
20260904121501 17 289 1.6 0.0 0.00 0.00 0.03 100 1013.1
20260904114554 -17 0.0 0.0 0.00 0.00 0.03 1013.0
20260904113050 -17 0.0 0.0 0.00 0.00 0.03 1012.9
20260904111544 17 298 0.0 0.0 0.00 0.00 0.03 100 1012.8
20260904104536 17 302 0.0 0.0 0.00 0.00 0.03 100 1012.5
20260904103032 17 302 0.0 0.0 0.00 0.00 0.03 100 1012.4
20260904101531 18 302 0.0 0.0 0.00 0.00 0.03 100 1012.2
20260904094522 18 310 0.0 0.0 0.00 0.00 0.03 100 1012.2
20260904093021 18 310 0.0 0.0 0.00 0.00 0.03 100 1012.4
20260904091519 18 310 0.0 0.0 0.00 0.00 0.03 100 1012.2
20260904084506 18 311 0.0 0.0 0.00 0.00 0.03 100 1012.1
20260904083001 18 311 0.0 0.0 0.00 0.00 0.00 100 1012.1
20260904081600 18 311 0.0 0.0 0.00 0.00 0.00 100 1011.9
20260904074549 18 311 0.0 0.0 0.00 0.00 0.00 100 1011.8
20260904073045 18 311 0.0 0.0 0.00 0.00 0.00 100 1011.8
20260904071540 18 311 0.0 0.0 0.00 0.00 0.00 100 1011.8
20260904064534 18 311 0.0 0.0 0.00 0.00 0.00 100 1011.7
20260904063030 18 311 0.0 0.0 0.00 0.00 0.00 100 1011.8
20260904061538 18 311 0.0 0.0 0.00 0.00 0.00 100 1012.3
20260904054522 18 311 0.0 0.0 0.00 0.00 0.00 100 1012.7
20260904053014 18 311 0.0 0.0 0.00 0.00 0.00 100 1012.7
20260904051510 18 311 0.0 0.0 0.00 0.00 0.00 100 1012.7
20260904044505 18 311 0.0 0.0 0.00 0.00 0.00 100 1012.6
20260904043107 18 311 0.0 0.0 0.00 0.00 0.00 100 1012.6
20260904041554 18 311 0.0 0.0 0.00 0.00 0.00 100 1012.9
20260904034547 18 311 0.0 0.0 0.00 0.00 0.20 100 1013.0
20260904033042 18 311 0.0 0.0 0.00 0.00 0.20 100 1013.0
20260904031537 18 311 0.0 0.0 0.00 0.00 0.20 100 1013.2
20260904024533 18 311 0.0 0.0 0.00 0.00 0.20 100 1013.3
20260904023028 18 311 0.0 0.0 0.00 0.00 0.20 100 1013.3
20260904021525 18 311 0.0 0.0 0.00 0.00 0.15 100 1013.5
20260904014515 18 311 0.0 0.0 0.00 0.00 0.15 100 1013.8
20260904013011 18 311 0.0 0.0 0.00 0.00 0.15 100 1013.7
20260904011507 18 311 0.0 0.0 0.00 0.00 0.15 100 1013.8
20260904004600 19 311 0.0 0.0 0.00 0.00 0.15 100 1013.5
20260904004501 19 311 0.0 0.0 0.00 0.00 0.15 100 1013.4
20260904003055 20 311 0.0 0.0 0.00 0.00 0.15 100 1013.5
20260904001553 20 311 0.0 0.0 0.00 0.00 0.15 100 1013.4
20260904000148 20 311 0.0 0.0 0.00 0.00 0.15 100 1013.4
20260903234543 21 311 0.0 0.0 0.00 0.00 0.15 100 1013.2
20260903233046 21 311 0.0 0.0 0.00 0.00 0.15 12 1013.3
20260903231535 22 311 0.0 0.0 0.00 0.00 0.15 23 1012.8
20260903230131 23 311 0.0 0.0 0.00 0.00 0.15 37 1012.7
20260903224530 23 311 0.0 0.0 0.00 0.00 0.15 40 1012.9
20260903223025 23 311 0.0 0.0 0.00 0.00 0.15 41 1012.5
20260903221521 23 311 0.0 0.0 0.00 0.00 0.15 38 1012.7
20260903220125 24 311 0.0 0.0 0.00 0.00 0.15 42 1012.5
20260903214514 24 311 0.0 0.0 0.00 0.00 0.15 44 1012.6
20260903213007 25 310 1.6 0.0 0.00 0.00 0.15 48 1012.8
20260903211504 25 265 3.2 0.0 0.00 0.00 0.15 50 1012.7
20260903210114 25 255 3.2 0.0 0.00 0.00 0.15 48 1012.9
20260903204557 25 226 3.2 0.0 0.00 0.00 0.15 45 1012.8
20260903203052 25 294 1.6 0.0 0.00 0.00 0.15 43 1012.5
20260903201549 25 234 4.8 0.0 0.00 0.00 0.15 44 1012.7
20260903200045 25 231 8.0 0.0 0.00 0.00 0.15 42 1012.7
20260903194544 25 246 3.2 0.0 0.00 0.00 0.15 41 1012.9
20260903193040 25 236 4.8 0.0 0.00 0.00 0.15 37 1013.1
20260903191548 24 254 4.8 0.0 0.00 0.00 0.15 35 1013.2
20260903190034 24 277 3.2 0.0 0.00 0.00 0.15 32 1013.4
20260903184540 23 273 1.6 0.0 0.00 0.00 0.15 32 1013.5
20260903183022 23 267 4.8 0.0 0.00 0.00 0.15 30 1013.6
20260903181518 23 228 8.0 0.0 0.00 0.00 0.15 26 1013.8
20260903180015 23 257 3.2 0.0 0.00 0.00 0.15 24 1013.8